This is the latest recevied weather packets stored in our database for station/object DC4AT. If no packets are shown the sender has not sent any weather packets the latest 10 day(s).
| Time | Temp. | Humidity | Pressure | Rain* | Wind** | Luminosity | Snow |
|---|---|---|---|---|---|---|---|
| 1787740661 | 16.11° C | 85% | 1018.8 hPa | 0 mm | - | 118 W/m² | - |
| 1787740061 | 16.11° C | 85% | 1018.8 hPa | 0 mm | - | 116 W/m² | - |
| 1787739461 | 16.11° C | 85% | 1018.7 hPa | 0 mm | - | 134 W/m² | - |
| 1787738861 | 15.56° C | 85% | 1018.8 hPa | 0 mm | - | 79 W/m² | - |
| 1787738261 | 15.56° C | 85% | 1018.7 hPa | 0 mm | - | 97 W/m² | - |
| 1787737661 | 16.11° C | 85% | 1018.8 hPa | 0 mm | - | 65 W/m² | - |
| 1787737061 | 15.56° C | 85% | 1018.8 hPa | 0 mm | - | 67 W/m² | - |
| 1787736461 | 15.56° C | 85% | 1018.8 hPa | 0 mm | - | 74 W/m² | - |
| 1787735861 | 15.56° C | 85% | 1018.7 hPa | 0 mm | - | 107 W/m² | - |
| 1787735261 | 15.56° C | 85% | 1018.6 hPa | 0 mm | - | 86 W/m² | - |
| 1787734661 | 15.56° C | 85% | 1018.6 hPa | 0 mm | - | 95 W/m² | - |
| 1787734061 | 15° C | 85% | 1018.7 hPa | 0 mm | - | 77 W/m² | - |
| 1787733461 | 15° C | 85% | 1018.6 hPa | 0 mm | - | 76 W/m² | - |
| 1787732861 | 15° C | 85% | 1018.5 hPa | 0 mm | - | 58 W/m² | - |
| 1787732261 | 15° C | 85% | 1018.5 hPa | 0 mm | - | 44 W/m² | - |
| 1787731661 | 15° C | 85% | 1018.2 hPa | 0 mm | - | 40 W/m² | - |
| 1787731061 | 15° C | 85% | 1018.1 hPa | 0 mm | - | 58 W/m² | - |
| 1787730461 | 15° C | 85% | 1018.1 hPa | 0 mm | - | 67 W/m² | - |
| 1787729861 | 15° C | 85% | 1018.1 hPa | 0 mm | - | 49 W/m² | - |
| 1787729261 | 15° C | 85% | 1018.1 hPa | 0 mm | - | 56 W/m² | - |
| 1787728661 | 15° C | 85% | 1018.1 hPa | 0 mm | - | 79 W/m² | - |
| 1787728061 | 15° C | 86% | 1018.1 hPa | 0 mm | - | 111 W/m² | - |
| 1787727461 | 15° C | 85% | 1018.1 hPa | 0 mm | - | 107 W/m² | - |
| 1787726861 | 15° C | 85% | 1018 hPa | 0 mm | - | 90 W/m² | - |
| 1787726261 | 14.44° C | 86% | 1018 hPa | 0 mm | - | 76 W/m² | - |
* Rain latest hour (hover to see other rain measurements)
** Current wind speed in m/s (hover to see current wind gust speed)